Weather in Dzhanybek

Kazakhstan     49°25′09″N   46°50′53″E
temp.,
°C
wind,
m/s
gust,
m/s
humid.,
%
clouds,
%
prec.,
mm/h
press.,
hPa
HPBL,
m
16 april, fri
fri1623:00+16ene484395 0.0 1014129
02:00+15ene463981 0.0 101384
05:00+13nw224429 0.0 101416
08:00+13n3451100 0.0 101562
11:00+18nnw343898 0.1 1016490
14:00+21nnw4529100 0.0 10161137
17:00+23n4425100 0.0 10162114
20:00+20nnw2236100 0.0 101618
17 april, sat
sat1723:00+15ese355316 0.0 101767
02:00+14ssw225873 0.0 101815
05:00+12s0063100 0.0 101810
08:00+13nw116397 0.0 101811
11:00+18wsw1146100 0.0 1018447
14:00+20wsw3341100 0.0 10181513
17:00+16w10964100 0.0 10201098
20:00+12wsw5881100 0.2 1021526
18 april, sun
sun1823:00+10w3587100 1.1 1021283
02:00+9nw368518 0.0 1021169
05:00+8nw33829 0.0 102141
08:00+9n22765 0.0 102153
11:00+14nw2252100 0.0 1020544
14:00+16wnw234185 0.0 10201514
17:00+18nw2237100 0.0 10191885
20:00+16n2344100 0.0 101884
19 april, mon
mon1923:00+13nnw2249100 0.0 101813
02:00+12nne3355100 0.0 101849
05:00+10nne227585 0.0 101818
08:00+11nne348684 0.0 1018112
11:00+15n226664 0.0 1018568
14:00+17nnw214595 0.0 10171832
17:00+16ene4357100 0.1 1017733
20:00+15ne2467100 0.2 1017522
20 april, tue
tue2023:00+13ene71168100 0.3 1017688
02:00+9ene71177100 0.3 1018397
05:00+9ene71479100 0.9 1018461
08:00+9e101681100 0.0 1018526
11:00+8e101774100 0.2 1018600
14:00+10e121965100 0.1 1017699
17:00+10e131974100 2.6 1017872
20:00+9e132078100 0.9 1017729